[[{"header":{"parameterUnit":"m.s-1","parameterCategory":1,"la1":30.2991,"la2":30.254,"lo1":-89.0895,"lo2":-89.0444,"dy":0.0017,"dx":0.0017,"nx":28,"ny":28,"refTime":"2024-08-05T03:00:00:Z","depth":0,"parameterNumber":2,"parameterNumberName":"U-component_of_WINDS"},"data":[0,0,0,0,0,0,0,0,0,0,0,0,0,0,0,0,0,0,0,0,0,0,0,0,0,0,0,0,0,0,0,0,0,0,0,0,0,0,0,0,0,0,0,0,0,0,0,0,0,0,0,0,0,0,0,0,0,0,-0.7747,-0.7748,0,-0.7901,-0.7903,-0.7904,-0.7921,-0.792,-0.7918,-0.7917,-0.808,-0.8086,-0.8092,0,0,0,0,0,0,0,0,0,0,0,0,0,-0.7472,-0.7477,-0.7746,-0.7748,-0.775,-0.7901,-0.7903,-0.7905,-0.7922,-0.792,-0.7918,-0.7916,-0.8078,-0.8085,-0.8092,0,0,0,0,0,0,0,0,0,0,0,0,0,-0.7605,-0.7479,-0.7746,-0.7777,-0.7781,-0.79,-0.7903,-0.7905,-0.7922,-0.792,-0.7917,-0.7915,-0.8076,-0.8085,-0.8093,-0.8194,0,0,-0.812,-0.8124,0,0,0,0,0,0,0,0,-0.7598,-0.7615,-0.777,-0.7775,-0.778,-0.7889,-0.7866,-0.8002,-0.7923,-0.7869,-0.7917,-0.7914,-0.8019,-0.8032,-0.8067,-0.8202,-0.8209,-0.8121,-0.8126,-0.813,-0.8132,0,0,0,0,0,0,0,-0.7589,-0.7609,-0.7808,-0.7773,-0.7778,-0.7785,-0.7801,-0.7892,-0.7955,-0.7873,-0.7875,-0.7892,-0.8021,-0.8058,-0.8071,-0.8211,-0.8121,-0.8128,-0.8134,-0.8137,-0.844,-0.8442,0,0,0,0,0,0,-0.7573,-0.7601,-0.7803,-0.7812,-0.7681,-0.7791,-0.781,-0.7857,-0.7954,-0.7967,-0.7894,-0.7893,-0.8044,-0.806,-0.8076,-0.8203,-0.813,-0.8138,-0.8143,-0.8437,-0.844,-0.8443,0,0,0,0,0,0,-0.7567,-0.7591,-0.7797,-0.7707,-0.7734,-0.7799,-0.7851,-0.7861,-0.7898,-0.797,-0.7982,-0.792,-0.8043,-0.8064,-0.8165,-0.8209,-0.8142,-0.815,-0.8434,-0.8438,-0.8442,-0.8456,0,0,0,0,0,0,-0.7559,-0.7588,-0.7626,-0.7708,-0.7739,-0.7881,-0.7854,-0.7866,-0.7912,-0.7912,-0.7998,-0.801,-0.8043,-0.8152,-0.8174,-0.822,-0.8157,-0.843,-0.8436,-0.844,-0.8452,-0.846,-0.8467,0,0,0,0,0,-0.7549,-0.7625,-0.7628,-0.7652,-0.7787,-0.7883,-0.7901,-0.7936,-0.7915,-0.7955,-0.8002,-0.8007,-0.82,-0.8162,-0.8187,-0.8236,-0.8427,-0.8434,-0.844,-0.8448,-0.8458,-0.8467,0,0,0,0,0,0,-0.7549,-0.7636,-0.7641,-0.7745,-0.7806,-0.7886,-0.7937,-0.7945,-0.8016,-0.8012,-0.8054,-0.8074,-0.8174,-0.8215,-0.8171,-0.834,-0.8312,-0.8323,-0.831,-0.832,-0.8327,-0.8316,-0.8164,0,0,0,0,0,-0.756,-0.7629,-0.7703,-0.7788,-0.7818,-0.7872,-0.7915,-0.7937,-0.8003,-0.803,-0.8084,-0.815,-0.8225,-0.8275,-0.8348,-0.8457,-0.8477,-0.8503,-0.8511,-0.8516,-0.8527,-0.859,-0.8603,-0.8464,-0.8464,-0.8464,0,0,-0.7586,-0.7642,-0.7684,-0.7789,-0.7839,-0.7912,-0.7894,-0.7972,-0.8027,-0.8042,-0.8141,-0.8183,-0.8259,-0.8365,-0.8414,-0.8402,-0.8569,-0.8524,-0.8529,-0.8536,-0.8597,-0.8611,-0.8622,-0.8468,-0.8467,-0.8467,0,0,-0.767,-0.7718,-0.7795,-0.7845,-0.7921,-0.7956,-0.7975,-0.8053,-0.8081,-0.818,-0.8194,-0.8261,-0.839,-0.8444,-0.8488,-0.8593,-0.8601,-0.8615,-0.8656,-0.8717,-0.8728,-0.8738,-0.8778,-0.8791,-0.8625,-0.8625,-0.8625,0,-0.7693,-0.7801,-0.7834,-0.7911,-0.7958,-0.7973,-0.8053,-0.8101,-0.8197,-0.823,-0.8215,-0.8377,-0.843,-0.8549,-0.8574,-0.8609,-0.8634,-0.8607,-0.8723,-0.8734,-0.8744,-0.8782,-0.8796,-0.8626,-0.8626,-0.8626,-0.8626,0,-0.7827,-0.7902,-0.7955,-0.8046,-0.8099,-0.8177,-0.8223,-0.8273,-0.829,-0.8327,-0.8429,-0.8492,-0.8579,-0.8609,-0.8626,-0.8731,-0.8722,-0.8714,-0.8688,-0.8758,-0.8795,-0.8809,-0.8629,-0.8628,-0.8628,-0.8627,0,0,-0.7917,-0.8024,-0.8044,-0.8086,-0.817,-0.823,-0.8309,-0.8392,-0.8435,-0.8501,-0.8571,-0.8679,-0.8672,-0.8723,-0.8747,-0.8799,-0.8881,-0.8786,-0.8788,-0.8804,-0.9004,-0.9011,-0.9027,-0.8886,-0.8889,-0.8891,-0.8998,0,-0.8013,-0.8152,-0.8184,-0.8305,-0.8377,-0.8392,-0.8461,-0.8521,-0.8559,-0.8626,-0.8667,-0.8744,-0.8729,-0.876,-0.8812,-0.886,-0.8922,-0.8852,-0.8954,-0.8957,-0.8936,-0.9046,-0.9053,-0.9151,-0.9012,-0.9015,-0.9017,0,-0.8143,-0.8211,-0.8338,-0.8414,-0.8445,-0.8507,-0.8586,-0.8649,-0.8719,-0.8742,-0.8798,-0.8817,-0.8902,-0.8869,-0.8988,-0.894,-0.8983,-0.9013,-0.9018,-0.9031,-0.8993,-0.9064,-0.9183,-0.9199,-0.9039,-0.9037,-0.9036,0,-0.8199,-0.8322,-0.8414,-0.8449,-0.854,-0.8583,-0.8623,-0.8689,-0.8738,-0.8808,-0.884,-0.892,-0.8964,-0.9026,-0.9066,-0.9038,-0.9184,-0.9153,-0.9208,-0.9207,-0.924,-0.9238,-0.937,-0.9264,-0.9263,-0.9263,-0.9263,0,-0.8304,-0.8382,-0.8441,-0.8498,-0.8587,-0.8623,-0.871,-0.8751,-0.881,-0.8877,-0.8895,-0.8958,-0.9006,-0.9076,-0.9108,-0.9204,-0.9223,-0.9246,-0.9254,-0.9246,-0.9244,-0.9277,-0.9272,-0.9267,-0.9266,-0.9265,-0.9265,0,-0.8382,-0.8424,-0.8527,-0.8603,-0.8624,-0.8686,-0.8753,-0.881,-0.8847,-0.8932,-0.8954,-0.9012,-0.9096,-0.9141,-0.9247,-0.9268,-0.9376,-0.9379,-0.9352,-0.9356,-0.9409,-0.9405,-0.957,-0.9595,-0.9469,-0.947,-0.9471,0,-0.8448,-0.8508,-0.859,-0.8636,-0.8676,-0.8749,-0.8798,-0.8836,-0.8887,-0.897,-0.9018,-0.9102,-0.9172,-0.9305,-0.9359,-0.944,-0.9447,-0.9499,-0.946,-0.945,-0.9451,-0.9448,-0.9455,-0.9507,-0.9508,-0.9509,-0.951,0,-0.856,-0.8578,-0.8647,-0.8724,-0.8782,-0.8844,-0.8907,-0.8943,-0.8992,-0.9048,-0.9133,-0.9187,-0.9293,-0.9378,-0.9463,-0.9507,-0.9518,-0.9521,-0.9539,-0.9533,-0.9515,-0.9528,-0.9374,-0.9518,-0.9517,-0.9517,-0.9516,-0.9516,-0.8636,-0.8691,-0.8758,-0.8835,-0.8885,-0.8943,-0.9001,-0.9044,-0.9115,-0.9203,-0.9222,-0.9312,-0.9381,-0.9496,-0.9542,-0.9615,-0.9605,-0.963,-0.9636,-0.9643,-0.9646,-0.9501,-0.963,-0.963,-0.963,-0.963,-0.963,0,-0.8752,-0.8795,-0.8865,-0.8951,-0.9012,-0.9014,-0.9083,-0.9135,-0.9213,-0.9275,-0.9343,-0.9441,-0.9523,-0.9583,-0.9667,-0.9714,-0.9721,-0.9735,-0.9733,-0.9744,-0.9649,-0.9626,-0.9727,-0.9727,-0.9727,-0.9727,-0.9727,-0.9727,-0.8819,-0.8913,-0.8938,-0.9058,-0.9101,-0.9188,-0.9228,-0.9282,-0.9332,-0.944,-0.9508,-0.9545,-0.9607,-0.9696,-0.9772,-0.9788,-0.9819,-0.9833,-0.9849,-0.976,-0.975,-0.974,-0.9719,-0.9838,-0.9839,-0.9938,-0.9939,-0.994]},{"header":{"parameterUnit":"m.s-1","parameterCategory":1,"la1":30.2991,"la2":30.254,"lo1":-89.0895,"lo2":-89.0444,"dy":0.0017,"dx":0.0017,"nx":28,"ny":28,"refTime":"2024-08-05T03:00:00:Z","depth":0,"parameterNumber":3,"parameterNumberName":"V-component_of_WINDS"},"data":[0,0,0,0,0,0,0,0,0,0,0,0,0,0,0,0,0,0,0,0,0,0,0,0,0,0,0,0,0,0,0,0,0,0,0,0,0,0,0,0,0,0,0,0,0,0,0,0,0,0,0,0,0,0,0,0,0,0,-3.547,-3.5471,0,-3.554,-3.5541,-3.5542,-3.5495,-3.5492,-3.549,-3.5488,-3.556,-3.5564,-3.5568,0,0,0,0,0,0,0,0,0,0,0,0,0,-3.5294,-3.5297,-3.547,-3.5471,-3.5472,-3.554,-3.5541,-3.5542,-3.5495,-3.5492,-3.549,-3.5487,-3.5559,-3.5563,-3.5568,0,0,0,0,0,0,0,0,0,0,0,0,0,-3.5368,-3.5298,-3.547,-3.5457,-3.5456,-3.554,-3.5541,-3.5543,-3.5496,-3.5492,-3.5489,-3.5486,-3.5557,-3.5563,-3.5569,-3.567,0,0,-3.5587,-3.5589,0,0,0,0,0,0,0,0,-3.5364,-3.5374,-3.5458,-3.5458,-3.5457,-3.5505,-3.5505,-3.5585,-3.5496,-3.5481,-3.5488,-3.5484,-3.5544,-3.5551,-3.5571,-3.5673,-3.5676,-3.5587,-3.5591,-3.5593,-3.5595,0,0,0,0,0,0,0,-3.5359,-3.5371,-3.5498,-3.5459,-3.5459,-3.5447,-3.5454,-3.552,-3.553,-3.5482,-3.5478,-3.5487,-3.5544,-3.5566,-3.5573,-3.5677,-3.5587,-3.5592,-3.5596,-3.5598,-3.5865,-3.5868,0,0,0,0,0,0,-3.5355,-3.5367,-3.5496,-3.55,-3.5402,-3.5452,-3.546,-3.5493,-3.5529,-3.5531,-3.549,-3.5485,-3.5557,-3.5566,-3.5575,-3.5696,-3.5593,-3.5599,-3.5602,-3.5861,-3.5865,-3.5869,0,0,0,0,0,0,-3.5351,-3.5367,-3.5493,-3.5433,-3.5448,-3.5459,-3.5496,-3.5496,-3.5518,-3.5535,-3.5537,-3.5511,-3.5555,-3.5567,-3.5646,-3.5697,-3.5601,-3.5607,-3.5857,-3.5862,-3.5867,-3.5938,0,0,0,0,0,0,-3.5346,-3.5366,-3.5405,-3.5434,-3.5451,-3.5564,-3.55,-3.55,-3.5529,-3.5523,-3.5555,-3.5558,-3.5554,-3.5638,-3.5652,-3.5704,-3.5611,-3.5852,-3.5859,-3.5866,-3.5931,-3.5945,-3.5957,0,0,0,0,0,-3.534,-3.5422,-3.5407,-3.5423,-3.55,-3.5567,-3.5576,-3.557,-3.5533,-3.5572,-3.5583,-3.5557,-3.5689,-3.5646,-3.5662,-3.5716,-3.5849,-3.5857,-3.5865,-3.5925,-3.5942,-3.5956,0,0,0,0,0,0,-3.5398,-3.5425,-3.5409,-3.5503,-3.5533,-3.5558,-3.5608,-3.5588,-3.563,-3.5622,-3.5612,-3.562,-3.5703,-3.5718,-3.5669,-3.5816,-3.5763,-3.5775,-3.5804,-3.582,-3.5832,-3.5827,-3.5616,0,0,0,0,0,-3.5422,-3.5474,-3.5494,-3.5575,-3.5591,-3.5597,-3.5625,-3.5618,-3.5649,-3.5661,-3.5677,-3.5708,-3.5757,-3.5789,-3.5834,-3.5932,-3.5939,-3.5977,-3.599,-3.6001,-3.6011,-3.6063,-3.6081,-3.5896,-3.5895,-3.5895,0,0,-3.5471,-3.5492,-3.5526,-3.5587,-3.5609,-3.5663,-3.5608,-3.5667,-3.5707,-3.567,-3.5746,-3.5759,-3.5793,-3.5882,-3.5922,-3.5896,-3.6063,-3.6011,-3.6019,-3.6024,-3.6073,-3.6091,-3.6106,-3.5901,-3.59,-3.5899,0,0,-3.5588,-3.561,-3.5679,-3.5702,-3.5737,-3.574,-3.5757,-3.5786,-3.5793,-3.5869,-3.5843,-3.589,-3.5973,-3.5998,-3.6022,-3.6148,-3.6125,-3.6163,-3.6231,-3.6282,-3.6296,-3.6309,-3.6354,-3.6371,-3.6173,-3.6173,-3.6173,0,-3.5645,-3.5726,-3.5717,-3.5778,-3.5806,-3.5775,-3.5844,-3.5868,-3.5915,-3.5935,-3.5905,-3.601,-3.603,-3.6125,-3.6155,-3.6175,-3.6194,-3.616,-3.6295,-3.6308,-3.632,-3.6363,-3.6379,-3.6178,-3.6177,-3.6177,-3.6176,0,-3.5794,-3.585,-3.5901,-3.5948,-3.5981,-3.6047,-3.6048,-3.6082,-3.6072,-3.6078,-3.6156,-3.6179,-3.6228,-3.625,-3.624,-3.6343,-3.6326,-3.6296,-3.6244,-3.6342,-3.6382,-3.6398,-3.6184,-3.6182,-3.6181,-3.618,0,0,-3.595,-3.5991,-3.601,-3.6031,-3.6066,-3.6109,-3.6173,-3.6221,-3.6251,-3.6285,-3.6338,-3.6409,-3.6381,-3.6408,-3.6401,-3.6446,-3.6544,-3.641,-3.6411,-3.6434,-3.6659,-3.6681,-3.67,-3.6529,-3.6532,-3.6535,-3.6656,0,-3.607,-3.6181,-3.6175,-3.6279,-3.633,-3.6301,-3.6356,-3.6384,-3.6391,-3.6435,-3.6443,-3.6494,-3.6454,-3.647,-3.6513,-3.6523,-3.6589,-3.6514,-3.6578,-3.658,-3.6571,-3.6721,-3.6746,-3.6859,-3.6671,-3.6674,-3.6676,0,-3.6224,-3.6263,-3.6373,-3.64,-3.6421,-3.6471,-3.6515,-3.6558,-3.6588,-3.659,-3.662,-3.6605,-3.6669,-3.6614,-3.6701,-3.6651,-3.6676,-3.6685,-3.6689,-3.6695,-3.6634,-3.6732,-3.6895,-3.6912,-3.67,-3.6698,-3.6697,0,-3.6328,-3.6407,-3.6483,-3.6502,-3.6535,-3.6571,-3.6587,-3.6614,-3.6643,-3.6681,-3.67,-3.6745,-3.677,-3.6805,-3.6802,-3.6763,-3.6891,-3.6836,-3.6894,-3.6895,-3.6923,-3.6922,-3.7093,-3.6939,-3.6939,-3.6939,-3.6938,0,-3.6462,-3.653,-3.653,-3.6577,-3.6652,-3.6643,-3.6718,-3.6729,-3.6754,-3.6802,-3.6779,-3.6825,-3.6818,-3.6864,-3.6862,-3.6935,-3.6946,-3.6949,-3.6948,-3.6952,-3.6951,-3.6969,-3.6961,-3.6943,-3.6942,-3.6941,-3.6941,0,-3.6591,-3.6593,-3.6674,-3.6699,-3.6707,-3.6761,-3.6782,-3.6826,-3.6831,-3.6892,-3.6906,-3.6914,-3.6967,-3.6967,-3.7027,-3.7026,-3.7115,-3.7105,-3.7105,-3.7103,-3.7161,-3.7156,-3.735,-3.7375,-3.7205,-3.7207,-3.7208,0,-3.6676,-3.6728,-3.6759,-3.6789,-3.6807,-3.6857,-3.6886,-3.688,-3.6912,-3.695,-3.6989,-3.7039,-3.7079,-3.7164,-3.7175,-3.7221,-3.7212,-3.7277,-3.7218,-3.722,-3.7213,-3.721,-3.7215,-3.7288,-3.729,-3.7292,-3.7293,0,-3.6828,-3.6827,-3.6871,-3.6915,-3.6951,-3.6986,-3.7018,-3.7044,-3.7041,-3.7078,-3.7131,-3.7162,-3.7223,-3.7273,-3.7317,-3.7333,-3.7313,-3.7311,-3.7327,-3.7331,-3.7329,-3.7331,-3.7136,-3.7307,-3.7305,-3.7304,-3.7304,-3.7303,-3.6938,-3.6982,-3.7011,-3.706,-3.7084,-3.7114,-3.7156,-3.7166,-3.7211,-3.726,-3.7253,-3.7313,-3.7341,-3.7398,-3.7417,-3.7463,-3.7441,-3.7464,-3.747,-3.7476,-3.7482,-3.7322,-3.7471,-3.7471,-3.7471,-3.747,-3.747,0,-3.7089,-3.7106,-3.7151,-3.7196,-3.7235,-3.7212,-3.7246,-3.728,-3.7333,-3.7361,-3.7401,-3.7462,-3.751,-3.7525,-3.7571,-3.7605,-3.7597,-3.7618,-3.7615,-3.7619,-3.75,-3.7481,-3.7624,-3.7624,-3.7624,-3.7624,-3.7624,-3.7623,-3.7172,-3.7246,-3.7248,-3.7333,-3.7348,-3.7407,-3.7428,-3.7456,-3.7478,-3.7547,-3.7587,-3.7596,-3.7619,-3.7667,-3.771,-3.7713,-3.7731,-3.7756,-3.7755,-3.7643,-3.7628,-3.7613,-3.7596,-3.776,-3.776,-3.7871,-3.7872,-3.7873]}]]